Williston, ND

4:12 AM CDT on April 30, 2017 (GMT -0500)
Sloulin International

Weather History for KISN - December, 2011

Change the Weather History Date:

Wednesday, December 7, 2011

  Actual Average Record
Temperature  
Mean Temperature 23 °F 16 °F  
Max Temperature 35 °F 27 °F 49 °F (1965)
Min Temperature 11 °F 6 °F -30 °F (1972)
Degree Days  
Heating Degree Days 42 49  
Month to date heating degree days 317 333  
Since 1 July heating degree days 2082 2495  
Cooling Degree Days 0 0  
Month to date cooling degree days 0 0  
Year to date cooling degree days 452 456  
Moisture  
Dew Point 15 °F    
Average Humidity 67    
Maximum Humidity 88    
Minimum Humidity 46    
Precipitation  
Precipitation 0.00 in 0.02 in 0.40 in (1945)
Month to date precipitation 0.05 0.14  
Year to date precipitation 19.10 13.89  
Snow  
Snow 0.00 in - - ()
Snow Depth -    
Sea Level Pressure  
Sea Level Pressure 30.19 in    
Wind  
Wind Speed 10 mph (NW)    
Max Wind Speed 18 mph    
Max Gust Speed 25 mph    
Visibility 10 miles    
Events      
T = Trace of Precipitation, MM = Missing Value Source: NWS Daily Summary

Daily Weather History Graph

Daily Weather History Graph

Search for Another Location

Airport or City:

Trip Planner

Search our weather history database for the weather conditions in past years. The results will help you decide how hot, cold, wet, or windy it might be!

Date:

Astronomy

Dec. 07, 2011 Rise Set
Actual Time 8:30 AM CST 5:00 PM CST
Civil Twilight 7:54 AM CST 5:37 PM CST
Nautical Twilight 7:15 AM CST 6:16 PM CST
Astronomical Twilight 6:37 AM CST 6:54 PM CST
Moon 3:07 PM CST (12/7) 5:42 AM CST (12/7)
Length of Visible Light 9h 42m
Length of Day
8h 30m
Waxing Gibbous, 92% of the Moon is Illuminated
Dec 7
Waxing Gibbous
Dec 10
Full
Dec 17
Last Quarter
Dec 24
New
Jan 1
First Quarter

Hourly Weather History & Observations

Time (CST) Temp. Windchill Dew Point Humidity Pressure Visibility Wind Dir Wind Speed Gust Speed Precip Events Conditions
12:52 AM 33.1 °F 24.4 °F 24.1 °F 70% 30.10 in 10.0 mi NNW 11.5 mph - N/A   Overcast
1:52 AM 30.9 °F 24.3 °F 23.0 °F 72% 30.11 in 10.0 mi North 6.9 mph - N/A   Overcast
2:52 AM 28.9 °F 25.2 °F 23.0 °F 78% 30.12 in 10.0 mi NNW 3.5 mph - N/A   Overcast
3:52 AM 28.0 °F 24.2 °F 21.9 °F 78% 30.14 in 10.0 mi NNW 3.5 mph - N/A   Overcast
4:52 AM 26.1 °F - 21.0 °F 81% 30.15 in 10.0 mi Calm Calm - N/A   Overcast
5:31 AM 26.6 °F 21.2 °F 21.2 °F 80% 30.08 in 10.0 mi WNW 4.6 mph - N/A   Overcast
5:52 AM 26.1 °F 20.5 °F 21.0 °F 81% 30.17 in 10.0 mi WNW 4.6 mph - N/A   Overcast
6:52 AM 24.8 °F 20.5 °F 21.2 °F 86% 30.09 in 10.0 mi WSW 3.5 mph - N/A   Overcast
7:52 AM 25.0 °F 18.1 °F 19.9 °F 81% 30.18 in 10.0 mi WNW 5.8 mph - N/A   Overcast
8:52 AM 27.0 °F 17.3 °F 21.0 °F 78% 30.18 in 10.0 mi NW 10.4 mph - N/A   Overcast
9:52 AM 28.0 °F 17.5 °F 18.0 °F 66% 30.19 in 10.0 mi NW 12.7 mph - N/A   Overcast
10:52 AM 28.0 °F 16.5 °F 12.9 °F 53% 30.20 in 10.0 mi NW 15.0 mph 23.0 mph N/A   Overcast
11:52 AM 28.0 °F 16.5 °F 14.0 °F 56% 30.22 in 10.0 mi NW 15.0 mph - N/A   Overcast
12:52 PM 28.0 °F 16.5 °F 10.9 °F 49% 30.21 in 10.0 mi NW 15.0 mph - N/A   Overcast
1:52 PM 28.0 °F 16.5 °F 12.9 °F 53% 30.20 in 10.0 mi WNW 15.0 mph - N/A   Overcast
2:52 PM 27.0 °F 17.3 °F 12.0 °F 53% 30.20 in 10.0 mi NW 10.4 mph - N/A   Overcast
3:52 PM 26.1 °F 14.0 °F 12.0 °F 55% 30.21 in 10.0 mi WNW 15.0 mph 21.9 mph N/A   Overcast
4:52 PM 24.1 °F 14.4 °F 12.0 °F 60% 30.22 in 10.0 mi WNW 9.2 mph - N/A   Mostly Cloudy
5:52 PM 21.9 °F 10.4 °F 14.0 °F 72% 30.24 in 10.0 mi West 11.5 mph - N/A   Mostly Cloudy
6:52 PM 18.0 °F 6.9 °F 12.9 °F 81% 30.25 in 10.0 mi WNW 9.2 mph - N/A   Clear
7:52 PM 18.0 °F 6.9 °F 12.9 °F 81% 30.27 in 10.0 mi NW 9.2 mph - N/A   Overcast
7:57 PM 17.6 °F 6.4 °F 12.2 °F 79% 30.17 in 10.0 mi NW 9.2 mph - N/A   Overcast
8:52 PM 17.1 °F 2.5 °F 6.1 °F 62% 30.27 in 10.0 mi WNW 15.0 mph 21.9 mph N/A   Overcast
9:52 PM 12.9 °F 0.7 °F 3.9 °F 67% 30.28 in 10.0 mi WNW 9.2 mph - N/A   Clear
10:52 PM 12.9 °F -0.9 °F 5.0 °F 71% 30.28 in 10.0 mi West 11.5 mph - N/A   Clear
11:52 PM 12.0 °F -2.0 °F 3.9 °F 70% 30.29 in 10.0 mi WSW 11.5 mph - N/A   Clear